Regional Weather Roundup
Issued by NWS

Home | Current Version | Previous Version | Graphics & Text | Print | Product List | Glossary On
Versions: 1 2 3 4 5 6 7 8 9 10 11 12 13 14 15 16 17 18 19 20 21 22 23 24 25 26 27 28 29 30 31 32 33 34 35 36 37 38 39 40 41 42 43 44 45 46 47 48 49 50
000
ASUS43 KOAX 220310
RWRNE

WEATHER ROUNDUP FOR NEBRASKA
NATIONAL WEATHER SERVICE OMAHA NE
1000 PM CDT WED JUN 21 2017

NOTES: SATELLITE DATA IS BEING USED TO AUGMENT CLOUD COVER ABOVE
       12000 FEET.
       "FAIR" INDICATES FEW OR NO CLOUDS BELOW 12,000 FEET WITH NO
       SIGNIFICANT WEATHER AND/OR OBSTRUCTIONS TO VISIBILITY.

  * THESE STATIONS DO NOT REPORT WEATHER SUCH AS RAIN...SNOW OR FOG.

NEZ001>004-019>022-054>056-220400-
NEBRASKA PANHANDLE

CITY           SKY/WX    TMP DP  RH WIND       PRES   REMARKS
SCOTTSBLUFF    CLEAR     80  53  39 E7        29.78S
ALLIANCE       CLEAR     73  56  54 E8        29.78S
CHADRON        CLEAR     74  59  59 NE7       29.73R
GORDON         FAIR      76  59  55 CALM      29.76S
KIMBALL        CLEAR     75  48  38 S6        29.88S
SIDNEY         CLEAR     74  47  38 E3        29.83S
$$

NEZ057>060-069>072-079>082-220400-
SOUTHWEST NEBRASKA

CITY           SKY/WX    TMP DP  RH WIND       PRES   REMARKS
NORTH PLATTE   CLEAR     80  56  43 NE8       29.71R
IMPERIAL       CLEAR     78  51  38 NE7       29.74S
LEXINGTON      PTCLDY    79  60  52 S9        29.70R
MCCOOK         CLEAR     84  63  49 E13       29.70R
OGALLALA       CLEAR     80  49  34 CALM      29.74S
$$

NEZ005>010-023>029-035>040-094-220400-
NORTH CENTRAL NEBRASKA

CITY           SKY/WX    TMP DP  RH WIND       PRES   REMARKS
VALENTINE      CLEAR     85  57  38 NE8       29.71R
AINSWORTH      CLEAR     76  64  64 E3        29.72R
BROKEN BOW     PTCLDY    77  66  68 NW3       29.70R
O`NEILL        CLOUDY    81  70  69 NE3       29.69R
ORD            LGT RAIN  84  69  60 W3        29.66R
THEDFORD       PTCLDY    83  57  41 E3        29.73S
$$

NEZ041-046>049-061>064-073>077-083>087-220400-
SOUTH CENTRAL NEBRASKA

CITY           SKY/WX    TMP DP  RH WIND       PRES   REMARKS
GRAND ISLAND   CLOUDY    87  68  52 S16       29.68R HX  90
AURORA         PTCLDY    86  61  42 S16G24    29.68R
HASTINGS       CLOUDY    88  63  43 S21G30    29.71R
HEBRON         CLOUDY    86  54  33 S12G17    29.72R
HOLDREGE       DRIZZLE   80  68  67 S22G31    29.72R
KEARNEY *      CLOUDY    88  66  48 S18G28    29.70R HX  90
YORK           MOCLDY    86  59  39 S17G25    29.69R
$$

NEZ011>018-030>034-042>045-220400-
NORTHEAST NEBRASKA

CITY           SKY/WX    TMP DP  RH WIND       PRES   REMARKS
NORFOLK        PTCLDY    85  69  58 S10       29.63S
ALBION         MOCLDY    83  69  62 S3        29.67R
BLAIR          CLOUDY    85  60  42 S20       29.68R
FREMONT        CLEAR     86  59  39 S14G22    29.67R
TEKAMAH        PTCLDY    86  60  41 S16       29.65R
WAYNE          MOCLDY    85  71  61 S10       29.63R HX  90
$$

NEZ050>053-065>068-078-088>093-220400-
SOUTHEAST NEBRASKA

CITY           SKY/WX    TMP DP  RH WIND       PRES   REMARKS
LINCOLN        CLEAR     84  59  42 S17       29.68R
OMAHA EPPLEY   CLOUDY    87  59  38 S18G26    29.67S
BEATRICE       CLEAR     84  58  42 S17G24    29.72S
FALLS CITY     CLEAR     82  62  50 S12       29.76R
NEBRASKA CITY  CLEAR     81  61  49 S14       29.73R
PLATTSMOUTH    CLOUDY    83  56  39 S18       29.71S
$$

NEZ044-045-051>053-067-220400-
OMAHA AREA

CITY           SKY/WX    TMP DP  RH WIND       PRES   REMARKS
OMAHA EPPLEY   CLOUDY    87  59  38 S18G26    29.67S
BLAIR          CLOUDY    85  60  42 S20       29.68R
FREMONT        CLEAR     86  59  39 S14G22    29.67R
MILLARD        PTCLDY    87  63  44 S12G20    29.68S
OFFUTT AFB     CLOUDY    84  59  42 S16G23    29.69R
PLATTSMOUTH    CLOUDY    83  56  39 S18       29.71S
WAHOO          FAIR      84  58  41 S12       29.67S
$$




USA.gov is the U.S. government's official web portal to all federal, state and local government web resources and services.